Weather History for LMML - May, 2013

Change the Weather History Date:

Saturday, May 4, 2013

  Actual Average Record
Temperature  
Mean Temperature 70 °F -  
Max Temperature 77 °F 75 °F 81 °F (2012)
Min Temperature 64 °F 60 °F 55 °F (2000)
Cooling Degree Days 6    
Growing Degree Days 20 (Base 50)    
Moisture  
Dew Point 58 °F    
Average Humidity 69    
Maximum Humidity 88    
Minimum Humidity 46    
Precipitation  
Precipitation 0.00 in 0.01 in - ()
Sea Level Pressure  
Sea Level Pressure 29.87 in    
Wind  
Wind Speed 12 mph ()    
Max Wind Speed 23 mph    
Max Gust Speed 37 mph    
Visibility 7.5 miles    
Events Rain , Hail    
Averages and records for this station are not official NWS values.
T = Trace of Precipitation, MM = Missing Value Source: Averaged Metar Reports

Daily Weather History Graph

Daily Weather History Graph

Search for Another Location

Airport or City:

Trip Planner

Search our weather history database for the weather conditions in past years. The results will help you decide how hot, cold, wet, or windy it might be!

Date:

Astronomy

May. 04, 2013 Rise Set
Actual Time 6:06 AM CEST 7:51 PM CEST
Civil Twilight 5:39 AM CEST 8:19 PM CEST
Nautical Twilight 5:05 AM CEST 8:52 PM CEST
Astronomical Twilight 4:30 AM CEST 9:28 PM CEST
Moon 2:44 AM CEST 2:41 PM CEST
Length of Visible Light 14h 40m
Length of Day
13h 44m
Waning Crescent, 29% of the Moon is Illuminated
May 4
Waning Crescent
May 10
New
May 18
First Quarter
May 25
Full
May 31
Last Quarter

Hourly Weather History & Observations

Time (CEST) Temp. Dew Point Humidity Pressure Visibility Wind Dir Wind Speed Gust Speed Precip Events Conditions
12:15 AM 64.4 °F 59.0 °F 83% 29.92 in - East 9.2 mph - N/A   Clear
12:45 AM 66.2 °F 59.0 °F 78% 29.89 in - ENE 11.5 mph - N/A   Clear
1:15 AM 66.2 °F 59.0 °F 78% 29.89 in - East 9.2 mph - N/A   Clear
1:45 AM 64.4 °F 59.0 °F 83% 29.89 in - East 10.4 mph - N/A   Clear
2:00 AM 65 °F 60 °F 78% 29.89 in 6 mi East 10.4 mph - -  
2:15 AM 64.4 °F 60.8 °F 88% 29.89 in - East 9.2 mph - N/A   Clear
2:45 AM 64.4 °F 60.8 °F 88% 29.86 in - East 8.1 mph - N/A   Clear
3:15 AM 64.4 °F 60.8 °F 88% 29.86 in 5.6 mi East 8.1 mph - N/A   Unknown
3:45 AM 64.4 °F 60.8 °F 88% 29.86 in 5.6 mi East 8.1 mph - N/A   Unknown
4:15 AM 64.4 °F 60.8 °F 88% 29.86 in - East 8.1 mph - N/A   Clear
4:45 AM 64.4 °F 60.8 °F 88% 29.86 in - East 10.4 mph - N/A   Clear
5:00 AM 64 °F 60 °F 83% 29.87 in 6 mi ENE 9.2 mph - -  
5:15 AM 64.4 °F 59.0 °F 83% 29.86 in - ENE 9.2 mph - N/A   Clear
5:45 AM 64.4 °F 59.0 °F 83% 29.86 in - East 10.4 mph - N/A   Clear
6:15 AM 64.4 °F 59.0 °F 83% 29.86 in - East 12.7 mph - N/A   Clear
6:45 AM 64.4 °F 60.8 °F 88% 29.89 in - East 13.8 mph - N/A   Clear
7:15 AM 66.2 °F 59.0 °F 78% 29.89 in - East 15.0 mph - N/A   Clear
7:45 AM 68.0 °F 57.2 °F 68% 29.89 in - East 15.0 mph - N/A   Clear
8:00 AM 69 °F 56 °F 55% 29.91 in 12 mi East 15.0 mph - -  
8:15 AM 69.8 °F 55.4 °F 60% 29.89 in - East 17.3 mph - N/A   Clear
8:45 AM 71.6 °F 57.2 °F 60% 29.89 in - ESE 18.4 mph 29.9 mph N/A   Clear
9:15 AM 71.6 °F 59.0 °F 64% 29.89 in - East 19.6 mph - N/A   Clear
9:45 AM 71.6 °F 59.0 °F 64% 29.89 in - East 19.6 mph - N/A   Clear
10:15 AM 71.6 °F 59.0 °F 64% 29.92 in - East 18.4 mph - N/A   Clear
10:45 AM 73.4 °F 57.2 °F 57% 29.89 in - East 23.0 mph - N/A   Clear
11:00 AM 74 °F 57 °F 46% 29.90 in 9 mi East 19.6 mph - -   Scattered Clouds
11:15 AM 75.2 °F 55.4 °F 50% 29.89 in - East 20.7 mph 32.2 mph N/A   Clear
11:45 AM 75.2 °F 57.2 °F 53% 29.89 in - ESE 20.7 mph 32.2 mph N/A   Clear
12:15 PM 75.2 °F 57.2 °F 53% 29.89 in - ESE 21.9 mph - N/A   Clear
12:45 PM 75.2 °F 57.2 °F 53% 29.89 in - ESE 20.7 mph - N/A   Clear
1:15 PM 75.2 °F 57.2 °F 53% 29.89 in 6.2 mi ESE 21.9 mph 33.4 mph N/A   Partly Cloudy
1:45 PM 75.2 °F 57.2 °F 53% 29.89 in 6.2 mi ESE 19.6 mph 36.8 mph N/A Rain Light Rain
2:00 PM 71 °F 58 °F 55% 29.88 in 9 mi ESE 17.3 mph - - Rain Light Rain
2:15 PM 73.4 °F 57.2 °F 57% 29.86 in - ESE 18.4 mph - N/A   Clear
2:45 PM 75.2 °F 55.4 °F 50% 29.86 in - ESE 20.7 mph - N/A   Clear
3:15 PM 75.2 °F 55.4 °F 50% 29.83 in - ESE 21.9 mph - N/A   Clear
3:45 PM 75.2 °F 57.2 °F 53% 29.83 in - ESE 19.6 mph 32.2 mph N/A   Clear
4:15 PM 73.4 °F 55.4 °F 53% 29.80 in - ESE 21.9 mph - N/A   Clear
4:45 PM 73.4 °F 57.2 °F 57% 29.83 in - ESE 18.4 mph - N/A   Clear
5:00 PM 73 °F 57 °F 46% 29.83 in 12 mi East 18.4 mph - -  
5:15 PM 73.4 °F 57.2 °F 57% 29.83 in - East 17.3 mph - N/A   Clear
5:45 PM 71.6 °F 57.2 °F 60% 29.83 in - East 17.3 mph - N/A   Clear
6:15 PM 71.6 °F 57.2 °F 60% 29.83 in - East 15.0 mph - N/A   Clear
6:45 PM 69.8 °F 57.2 °F 64% 29.83 in - East 13.8 mph - N/A   Clear
7:15 PM 68.0 °F 57.2 °F 68% 29.83 in - East 13.8 mph - N/A   Clear
7:45 PM 68.0 °F 59.0 °F 73% 29.83 in - East 13.8 mph - N/A   Clear
8:00 PM 67 °F 58 °F 66% 29.85 in 7 mi East 12.7 mph - -  
8:15 PM 66.2 °F 59.0 °F 78% 29.86 in - East 11.5 mph - N/A   Clear
8:45 PM 66.2 °F 59.0 °F 78% 29.86 in - East 13.8 mph - N/A   Clear
9:15 PM 66.2 °F 59.0 °F 78% 29.86 in - East 11.5 mph - N/A   Clear
9:37 PM 66.2 °F 59.0 °F 78% 29.86 in 6.2 mi East 11.5 mph - N/A Hail Hail
9:38 PM 66.2 °F 59.0 °F 78% 29.86 in - East 11.5 mph - N/A   Clear
9:45 PM 66.2 °F 59.0 °F 78% 29.86 in - East 11.5 mph - N/A   Clear
10:15 PM 66.2 °F 60.8 °F 83% 29.86 in - East 12.7 mph - N/A   Clear
10:45 PM 66.2 °F 60.8 °F 83% 29.86 in - ESE 11.5 mph - N/A   Clear
11:00 PM 66 °F 60 °F 76% 29.87 in 7 mi ESE 11.5 mph - -   Partly Cloudy
11:15 PM 66.2 °F 60.8 °F 83% 29.86 in - East 10.4 mph - N/A   Clear
11:45 PM 66.2 °F 60.8 °F 83% 29.86 in - ESE 12.7 mph - N/A   Clear